This is the latest recevied weather packets stored in our database for station/object SP2FH-13. If no packets are shown the sender has not sent any weather packets the latest 10 day(s).
| Time | Temp. | Humidity | Pressure | Rain* | Wind** | Luminosity | Snow |
|---|---|---|---|---|---|---|---|
| 1777622874 | 14.44° C | 49% | 1016.1 hPa | - | - | 567 W/m² | - |
| 1777622573 | 13.89° C | 50% | 1016.1 hPa | - | - | 557 W/m² | - |
| 1777622272 | 13.33° C | 50% | 1016.1 hPa | - | - | 546 W/m² | - |
| 1777621971 | 13.33° C | 50% | 1016.1 hPa | - | - | 536 W/m² | - |
| 1777621670 | 13.33° C | 51% | 1016.1 hPa | - | - | 526 W/m² | - |
| 1777621370 | 13.33° C | 50% | 1016.2 hPa | - | - | 514 W/m² | - |
| 1777621069 | 12.78° C | 52% | 1016.2 hPa | - | - | 498 W/m² | - |
| 1777620767 | 12.78° C | 50% | 1016.2 hPa | - | - | 486 W/m² | - |
| 1777620465 | 12.78° C | 50% | 1016.1 hPa | - | - | 473 W/m² | - |
| 1777620164 | 12.78° C | 50% | 1016.1 hPa | - | - | 463 W/m² | - |
| 1777619863 | 12.22° C | 52% | 1016.1 hPa | - | - | 448 W/m² | - |
| 1777619562 | 12.22° C | 51% | 1016.2 hPa | - | - | 435 W/m² | - |
| 1777619261 | 12.22° C | 53% | 1016.1 hPa | - | - | 420 W/m² | - |
| 1777618960 | 12.22° C | 51% | 1016.1 hPa | - | - | 407 W/m² | - |
| 1777618658 | 11.67° C | 53% | 1016.1 hPa | - | - | 391 W/m² | - |
| 1777618358 | 11.67° C | 52% | 1016.1 hPa | - | - | 378 W/m² | - |
| 1777618056 | 11.67° C | 54% | 1016.1 hPa | - | - | 365 W/m² | - |
| 1777617756 | 11.67° C | 54% | 1016 hPa | - | - | 354 W/m² | - |
| 1777617454 | 11.67° C | 56% | 1016.1 hPa | - | - | 336 W/m² | - |
| 1777617153 | 11.67° C | 53% | 1016.1 hPa | - | - | 323 W/m² | - |
| 1777616852 | 11.11° C | 55% | 1016.1 hPa | - | - | 307 W/m² | - |
| 1777616551 | 11.11° C | 56% | 1016.1 hPa | - | - | 292 W/m² | - |
| 1777616250 | 10.56° C | 56% | 1016.1 hPa | - | - | 277 W/m² | - |
| 1777615949 | 10° C | 58% | 1016 hPa | - | - | 261 W/m² | - |
| 1777615648 | 10° C | 59% | 1016 hPa | - | - | 247 W/m² | - |
* Rain since midnight (hover to see other rain measurements)
** Current wind speed in m/s (hover to see current wind gust speed)